Location: Kershaw
(34.5481°N, 80.5823°W)
Time: 02:01:38
(UTC+00:00)

Altair - Pass Details

Date: 05 October 2022
Orbit: 1501 x 1682 km, 47.2° (Epoch: 01 December)

Event Time Altitude Azimuth Distance (km) Brightness Sun altitude
Rises 17:55:50 0° 297° (WNW) 4,930 10.1 49.1°
Reaches altitude 10° 17:59:36 10° 287° (WNW) 3,944 9.8 48.9°
Maximum altitude 18:07:38 28° 233° (SW) 2,775 10.0 48.3°
Drops below altitude 10° 18:15:38 10° 180° (S) 3,895 10.5 47.7°
Sets 18:19:22 0° 169° (S) 4,858 10.6 47.3°
